Theta_e
313 312 312 313 310 314 314 316 318 315 314 315 314 314 314 313 311 312 310 308 307 307 306 307 307 308 308 306 305 305 306 306 307 308 309 309 310 310 310 308 307 306 306 306
312 311 310 310 312 312 312 314 314 314 313 314 313 314 314 313 312 311 310 310 308 308 305 304 304 305 306 305 305 306 306 306 308 309 309 309 310 309 309 307 306 306 306 307
312 314 311 311 313 313 313 313 314 316 314 313 311 313 312 312 313 311 308 308 310 308 306 303 301 302 304 304 305 306 306 306 308 309 309 309 309 308 308 308 306 306 307 307
313 312 313 313 314 313 316 312 313 316 315 315 311 317 309 312 311 312 311 308 309 307 305 302 301 300 302 304 306 306 306 307 308 309 309 310 310 308 308 309 307 307 307 308
311 312 313 315 314 312 315 313 313 314 314 313 312 311 312 310 312 313 312 310 308 306 304 302 301 301 302 304 306 306 306 307 308 309 309 310 310 308 310 309 308 309 309 310
308 308 310 311 310 311 309 311 310 308 309 310 310 312 313 311 313 317 312 310 308 306 303 301 301 302 302 305 306 306 306 307 308 309 309 309 310 311 310 309 310 310 311 313
310 310 309 309 311 310 310 312 309 308 309 314 310 310 313 312 310 311 311 308 307 305 302 301 300 300 302 305 305 306 306 307 307 308 308 309 310 310 311 310 311 311 312 313
310 310 310 308 311 312 310 311 310 308 314 314 310 315 315 311 308 307 309 306 307 305 303 301 300 300 302 305 305 306 306 307 307 308 308 309 309 310 311 313 313 314 314 313
310 310 308 308 308 309 311 312 308 311 301 309 310 308 308 307 307 305 304 308 308 307 303 302 300 301 302 304 305 306 306 307 307 308 308 308 309 310 311 313 313 315 314 315
311 311 308 308 308 307 310 308 311 307 309 312 310 310 310 307 304 303 303 303 305 306 304 301 299 300 302 304 305 305 306 307 307 307 308 308 309 310 311 312 314 315 316 316
310 313 309 308 309 310 309 310 309 309 309 313 315 313 306 302 302 301 302 302 302 305 304 302 299 300 301 303 304 304 305 306 307 307 307 308 308 309 310 312 313 314 316 317
311 314 310 309 307 306 308 309 309 311 310 309 313 312 303 303 301 300 300 300 300 302 302 301 300 300 300 301 302 303 305 305 306 307 306 307 308 308 309 310 312 313 314 317
313 313 314 316 314 307 308 307 307 308 308 310 313 311 303 302 300 298 298 298 297 296 295 296 298 298 299 299 300 302 303 305 306 306 306 306 307 308 308 309 311 312 313 314
312 313 316 317 313 310 309 307 307 309 311 312 311 311 305 301 299 297 296 295 295 294 293 293 294 295 296 297 298 299 301 303 305 305 306 306 306 307 308 308 310 311 312 313
307 313 311 313 313 312 310 309 308 310 310 311 310 309 303 300 297 295 294 294 293 293 292 291 291 292 292 292 292 294 297 299 302 304 305 306 306 306 307 307 308 309 310 312
305 311 310 310 312 311 314 313 313 311 309 308 308 308 297 297 294 293 293 292 292 291 291 290 289 289 290 289 289 290 292 295 297 302 304 305 306 305 306 306 307 307 308 309
306 309 309 310 309 311 313 308 310 312 302 304 311 299 296 297 295 293 293 292 291 290 289 289 288 287 287 286 286 288 291 294 296 298 301 303 305 305 305 305 306 306 307 307
302 306 309 305 306 313 302 297 299 298 296 296 296 295 294 294 293 292 291 291 290 289 288 288 286 286 286 285 284 286 288 291 294 296 298 300 302 304 305 304 304 305 306 306
297 303 306 305 301 305 303 296 297 299 295 294 294 294 293 294 294 294 291 290 289 288 287 286 285 285 285 284 283 284 285 285 286 287 289 291 295 298 301 302 303 304 304 304
299 301 304 298 304 306 297 294 294 296 300 292 292 291 292 294 299 295 291 290 289 288 286 286 284 284 284 283 282 283 283 283 282 282 285 288 291 294 297 299 301 302 302 304
288 297 299 302 304 295 293 292 295 301 294 291 291 291 291 292 292 292 290 288 287 286 285 285 283 283 283 282 281 282 282 281 281 281 283 285 288 290 293 296 297 299 300 300
290 289 291 292 297 299 291 293 294 292 291 291 290 290 289 289 288 288 286 286 285 283 282 282 281 281 281 281 280 280 281 280 279 280 281 283 285 287 290 293 296 296 297 297
289 286 287 294 292 290 289 291 291 291 290 290 290 287 285 285 286 284 283 283 282 281 280 279 278 278 278 278 277 278 279 279 278 278 279 281 282 285 287 290 292 293 294 293
282 283 284 284 283 287 287 288 289 289 289 287 284 283 282 282 282 282 282 280 279 278 277 276 276 276 276 275 275 275 276 276 276 277 278 280 281 282 285 287 289 291 291 292
284 285 283 284 287 290 291 288 288 288 285 284 281 280 280 279 280 279 278 278 277 276 275 274 274 274 273 273 273 273 273 273 274 275 277 278 279 280 282 285 287 288 290 291
284 285 284 283 284 287 289 289 285 284 283 280 278 278 277 278 277 276 275 275 274 274 272 272 272 271 271 271 271 271 271 271 272 273 275 276 278 278 280 282 283 286 288 290
Wind_Speed
1 3 9 12 4 1 4 3 2 2 2 1 6 14 18 14 10 17 10 9 10 9 5 11 20 25 29 28 25 20 16 11 7 5 5 3 3 3 2 2 0 2 4 5
4 7 5 4 4 4 2 2 5 4 2 2 6 16 20 17 13 8 7 9 8 3 4 5 20 27 33 31 24 19 14 11 8 6 7 4 3 2 3 2 4 5 5 5
6 3 5 8 4 5 3 4 2 5 4 2 7 9 7 5 3 5 7 6 2 5 7 6 10 21 30 28 24 19 15 11 8 8 8 5 3 2 1 2 5 5 5 6
5 4 3 4 3 6 2 6 5 3 2 3 4 6 6 7 11 5 8 5 3 2 5 6 7 16 26 25 20 17 14 11 10 8 8 5 4 4 4 3 6 5 6 7
7 3 5 3 5 8 5 3 5 2 3 2 2 2 8 3 8 6 5 2 4 4 7 9 8 16 23 22 20 16 13 10 9 8 8 5 6 5 4 6 7 6 6 7
5 1 3 5 3 5 7 6 7 5 2 2 4 5 6 4 3 4 3 2 5 5 6 7 10 18 19 18 17 15 13 11 10 9 10 7 6 6 7 9 7 6 5 6
1 2 0 2 6 3 4 6 2 4 2 5 3 3 10 8 7 5 9 10 4 6 7 7 9 11 18 19 17 15 13 11 10 9 10 10 7 8 7 9 8 8 7 9
6 3 8 5 6 7 6 7 5 6 4 3 3 5 6 5 6 4 4 7 3 5 5 7 8 12 18 20 17 14 13 11 11 10 10 10 8 9 8 8 9 9 8 10
5 5 1 2 3 6 6 5 6 4 2 3 3 7 12 2 6 8 8 4 4 1 3 6 6 12 16 17 17 15 14 12 12 11 11 12 10 10 10 9 9 9 11 11
0 1 2 1 2 2 4 5 3 2 2 4 3 4 6 10 14 13 17 14 7 1 1 3 4 9 13 14 15 14 13 12 11 12 12 13 12 11 11 10 10 10 9 13
2 3 2 2 5 8 3 3 2 4 5 5 3 5 6 7 9 11 15 17 15 6 1 2 3 8 12 14 15 15 14 13 13 14 14 14 14 13 12 12 12 12 11 12
3 2 4 6 1 2 1 6 6 4 4 3 1 3 4 6 9 12 14 16 18 14 9 5 2 6 9 12 14 16 16 16 15 14 15 16 15 15 14 13 14 13 13 13
6 3 2 2 1 1 4 5 3 3 2 6 5 4 4 7 10 13 14 15 15 16 17 16 14 11 11 11 14 16 17 18 16 15 16 18 18 18 17 15 14 16 16 15
1 3 4 6 1 2 4 4 6 5 3 6 7 3 2 11 12 13 14 14 13 14 15 14 15 17 22 21 16 17 19 19 19 18 18 20 21 21 20 19 18 19 19 19
2 2 1 3 4 3 3 1 4 12 13 6 3 6 3 7 8 9 10 12 14 16 17 16 14 13 21 24 25 25 19 21 21 21 21 23 21 21 22 22 22 21 22 21
2 2 1 3 5 7 5 5 4 3 3 6 5 5 3 5 5 9 11 13 13 14 15 15 14 18 21 24 25 25 26 21 20 24 26 24 22 22 23 25 24 24 24 25
4 3 1 3 2 2 4 4 5 2 5 2 4 3 6 5 9 11 11 12 13 13 14 14 14 18 21 24 25 26 28 25 16 19 25 26 25 24 24 24 27 27 28 27
3 4 1 3 3 2 4 5 2 11 8 8 7 6 5 5 6 7 9 10 10 11 13 13 17 21 23 25 27 27 26 28 22 17 15 20 24 26 26 25 27 29 29 31
6 2 3 2 2 0 3 5 4 3 3 6 5 6 7 8 10 5 9 9 9 10 11 13 17 18 20 25 30 25 26 27 27 26 24 21 18 20 25 28 28 30 31 32
6 7 3 2 2 3 3 4 3 5 2 2 4 6 9 9 3 2 8 9 12 14 15 18 19 18 19 24 27 23 23 25 27 29 29 26 21 20 21 25 29 32 32 34
3 2 3 5 3 2 4 7 3 3 1 1 3 5 7 5 3 5 8 9 11 14 17 19 18 19 19 21 23 20 19 22 26 30 30 28 25 21 19 21 23 27 30 32
1 1 1 2 0 5 4 2 2 1 2 2 3 4 5 6 7 7 8 9 13 15 17 18 19 20 19 21 23 22 19 23 27 32 30 30 29 26 22 20 21 23 24 27
2 3 2 2 3 3 3 2 4 2 1 2 2 2 4 7 7 9 8 9 12 14 17 17 18 19 18 19 21 23 25 26 30 30 30 30 30 29 25 21 19 20 21 22
4 3 2 4 3 3 2 1 2 1 0 2 2 2 4 5 7 9 8 8 11 13 15 18 18 19 20 21 20 20 25 27 27 25 25 27 26 29 27 24 19 17 18 18
5 3 3 4 1 2 2 4 4 1 3 2 1 1 3 4 6 6 7 8 10 12 14 15 16 19 21 23 22 23 23 27 27 26 22 20 21 25 27 24 21 20 21 20
4 5 3 4 4 3 2 4 4 3 3 3 2 2 3 3 5 6 8 10 11 14 15 16 16 18 22 25 26 28 27 25 25 25 23 22 20 22 22 23 28 23 19 20
Wind_Direction
172 134 205 203 175 99 129 174 241 277 11 313 251 273 280 281 264 277 276 270 257 251 267 188 184 183 178 174 176 179 179 183 192 185 165 154 122 52 17 4 346 124 117 131
77 241 199 157 181 236 304 7 290 290 356 194 302 283 283 277 260 251 251 266 270 248 102 121 153 168 174 172 176 176 180 182 191 193 180 156 127 45 348 68 106 122 131 129
171 209 164 160 160 184 217 203 219 232 330 257 330 286 318 296 283 278 249 240 197 223 171 151 151 160 171 172 174 177 179 180 184 183 175 166 138 178 244 149 126 131 132 135
247 280 112 144 177 137 243 201 173 204 65 238 45 287 306 294 304 274 287 223 189 128 133 147 159 159 171 174 172 175 176 179 182 182 180 174 184 178 207 170 145 142 136 140
234 196 187 162 199 158 217 116 139 117 124 6 317 64 271 318 289 298 359 176 174 171 165 162 169 166 175 172 172 173 174 180 186 182 177 173 175 190 190 168 155 147 145 144
218 223 176 197 108 154 146 78 46 54 72 339 239 146 289 247 250 312 343 62 174 155 149 130 143 167 170 173 173 174 177 183 191 188 184 196 190 187 178 166 163 152 147 144
21 216 277 145 87 57 96 92 335 347 9 226 0 93 247 275 284 275 296 294 187 148 155 152 154 162 173 177 178 179 182 191 196 196 197 199 196 189 191 181 169 160 151 150
161 271 169 191 177 175 178 155 164 212 196 244 56 228 248 216 298 276 315 334 73 138 159 175 170 175 181 184 184 187 193 202 202 205 205 205 205 195 187 181 170 168 170 169
162 256 121 133 149 144 176 198 158 98 26 60 226 279 304 89 31 8 346 340 346 143 180 190 172 183 190 192 194 196 201 210 214 216 213 211 210 205 195 191 188 184 176 174
247 258 12 134 126 47 147 173 94 9 201 239 272 276 242 359 350 352 4 2 337 329 175 182 173 186 201 208 209 208 214 218 222 225 226 222 218 215 208 201 198 193 193 188
78 344 339 120 215 167 149 182 146 146 172 182 161 250 356 14 2 0 5 3 350 329 279 189 191 207 209 215 218 221 219 221 224 228 230 228 226 224 220 217 211 207 201 200
189 116 203 204 278 254 257 203 170 161 216 238 189 254 19 42 24 20 15 12 14 19 11 359 300 228 226 226 228 227 228 229 231 235 234 233 232 232 230 226 223 221 220 209
146 201 124 319 296 87 217 193 195 126 99 201 148 234 103 37 27 18 16 15 19 18 23 22 17 355 320 282 256 246 240 239 239 237 238 235 233 233 238 236 233 231 231 229
249 194 208 206 155 110 184 193 189 182 193 220 224 169 348 15 18 5 9 14 14 22 20 18 19 8 8 359 320 283 267 256 247 241 239 238 237 232 236 243 237 238 237 239
73 274 236 276 290 359 32 241 203 217 229 223 259 223 51 22 13 5 10 10 16 17 16 13 8 4 3 3 358 353 316 279 262 248 241 242 244 241 234 237 240 240 241 240
32 314 222 276 249 243 250 239 267 275 285 279 262 256 16 71 43 26 19 17 19 15 9 5 1 4 1 357 350 345 343 327 289 259 251 250 247 245 241 237 239 242 241 241
356 331 335 268 320 165 249 299 255 165 65 12 241 37 10 35 47 28 19 24 19 10 5 1 358 357 356 353 348 345 344 348 320 282 263 256 253 248 246 244 240 241 243 245
329 333 305 273 355 241 119 11 65 91 62 46 53 30 19 8 107 66 34 21 12 3 359 358 355 352 355 354 354 351 360 12 16 4 325 289 270 258 251 247 242 242 244 245
225 320 293 231 221 249 147 15 11 6 80 28 43 12 357 324 177 92 33 16 4 355 355 351 349 348 351 357 356 356 1 6 9 2 351 339 325 293 272 257 249 245 245 249
196 219 255 347 223 244 35 322 306 297 202 16 11 6 359 6 144 45 9 0 355 353 352 348 348 347 353 355 357 359 0 1 358 347 340 338 330 319 290 276 267 260 251 249
353 9 234 238 272 359 310 309 316 181 157 287 347 1 358 21 12 334 360 351 352 348 348 347 347 346 346 350 352 353 354 357 344 341 342 342 338 322 311 289 277 271 265 259
87 54 321 323 353 240 327 324 84 106 258 330 353 20 349 338 336 353 344 343 348 345 350 351 345 343 345 348 348 344 345 341 341 343 343 340 341 336 325 310 284 274 268 263
296 171 208 217 232 215 296 147 155 174 45 4 21 27 352 322 336 338 338 344 343 343 344 348 346 342 348 350 349 337 334 336 338 341 340 339 336 335 336 327 307 286 274 259
303 187 201 31 296 220 192 7 156 172 270 108 73 11 339 322 326 326 336 340 339 341 346 344 342 342 341 345 346 340 335 332 330 329 335 337 333 331 329 333 322 305 278 262
211 137 198 269 306 255 221 222 215 149 111 112 74 343 312 316 315 331 325 326 329 332 336 335 334 332 329 332 335 338 339 341 331 326 325 329 329 331 325 323 318 308 295 278
190 197 161 227 226 177 223 191 147 181 207 179 204 275 285 285 305 328 314 321 323 326 325 325 323 322 321 326 328 336 343 341 335 326 323 322 323 322 322 321 320 315 306 298